Regional Weather Roundup
Issued by NWS

Home | Current Version | Previous Version | Graphics & Text | Print | Product List | Glossary On
Versions: 1 2 3 4 5 6 7 8 9 10 11 12 13 14 15 16 17 18 19 20 21 22 23 24 25 26 27 28 29 30 31 32 33 34 35 36 37 38 39 40 41 42 43 44 45 46 47 48 49 50
000
ASUS43 KIND 261109
RWRIN

WEATHER ROUNDUP FOR INDIANA
NATIONAL WEATHER SERVICE INDIANAPOLIS IN
700 AM EDT THU MAR 26 2015

NOTE: "FAIR" INDICATES FEW OR NO CLOUDS BELOW 12,000 FEET WITH NO
SIGNIFICANT WEATHER AND/OR OBSTRUCTIONS TO VISIBILITY.

* - STATION DOES NOT REPORT WEATHER SUCH AS PRECIPITATION OR FOG.

+ - STATION NOT QUALITY CONTROLLED BY THE NATIONAL WEATHER SERVICE.
    USE DATA WITH CAUTION...ESPECIALLY DEWPOINT AND RELATIVE
    HUMIDITY OBSERVATIONS.

INZ001>003-010>013-019-020-261200-
NORTHWEST INDIANA

CITY           SKY/WX    TMP DP  RH WIND       PRES   REMARKS
GARY /AIRPORT/ MOCLDY    37  25  60 NW7       29.96R
KNOX *+          N/A     34  23  64 NW5       29.93S WCI  30
LA PORTE +     CLOUDY    36  30  79 NW5       29.94S
MICHIGAN CITY+ CLOUDY    34  27  75 NW5       29.95R WCI  30
MONTICELLO +   RAIN      34  33  98 NW5       29.93F WCI  30
RENSSELAER +   CLOUDY    36  34  93 NW6       29.95S
VALPARAISO     CLOUDY    35  27  72 NW6       29.95R WCI  30

$$

LMZ046-743>745-261200-
SOUTHERN LAKE MICHIGAN

STATION/POSITION TIME  TEMP WIND        PRES
                       AIR  DIR/SP/G
                 (UTC) (F)  (DEG/KT/KT) (MB)
BURNS HARBOR     1100   36  320/  7/  9 1014.6F
MICHIGAN CITY    1100   34  270/  8/  9   N/A

$$

INZ004-005-014>016-021>024-261200-
NORTH CENTRAL INDIANA

CITY           SKY/WX    TMP DP  RH WIND       PRES   REMARKS
ELKHART        CLOUDY    36  28  75 NW3       29.93
GOSHEN         CLOUDY    36  29  75 N10       29.91F
LOGANSPORT +   LGT RAIN  34  34 100 NW7       29.93S WCI  28
PERU/GRISSOM   LGT RAIN  37  36  94 N9        29.90S
ROCHESTER +    LGT RAIN  37  36  93 N7        29.93R
SOUTH BEND     CLOUDY    36  29  75 NW5       29.94R
WARSAW +       DRIZZLE   34  32  93 NW6       29.91F WCI  29

$$

INZ006>009-017-018-025>027-261200-
NORTHEAST INDIANA

CITY           SKY/WX    TMP DP  RH WIND       PRES   REMARKS
ANGOLA *+      CLOUDY    36  27  69 N3        29.89F
AUBURN +       RAIN      36  34  93 NW3       29.91S
FORT WAYNE     LGT RAIN  38  37  97 N3        29.91S FOG
HUNTINGTON +   LGT RAIN  37  34  89 N3        29.91S

$$

INZ028-029-035-036-043>045-051>053-261200-
WEST CENTRAL INDIANA

CITY           SKY/WX    TMP DP  RH WIND       PRES   REMARKS
CRAWFORDSVL +  CLOUDY    35  31  86 MISG      29.92S
GREENCASTLE +  CLOUDY    37  34  87 N10       29.91S FOG
LAFAYETTE      LGT RAIN  34  32  92 NW9       29.93F WCI  27
TERRE HAUTE    LGT RAIN  40  37  89 N12       29.93R

$$

INZ030>032-037>040-046>048-054>057-064-065-261200-
CENTRAL INDIANA

CITY           SKY/WX    TMP DP  RH WIND       PRES   REMARKS
CP ATTERBURY + LGT RAIN  41  37  87 N8        29.89F
COLUMBUS       LGT RAIN  41  39  93 N9        29.88
FISHERS *+     CLOUDY    37  37 100 N5        29.90
FRANKFORT +    DRIZZLE   38  38 100 NW8       29.93S
GREENWOOD *+   CLOUDY    39  37  93 N9        29.90S
INDIANAPOLIS   LGT RAIN  40  37  89 N10       29.88F FOG
-EAGLE CREEK   LGT RAIN  39  37  92 N10       29.90S
KOKOMO *+      CLOUDY    37  36  93 N7        29.92S
MARION +       LGT RAIN  37  37 100 CALM      29.91F
MT COMFORT *+  CLOUDY    39 N/A N/A N10       29.90R
SHELBYVILLE    LGT RAIN  42  38  85 N8        29.88S FOG
ZIONSVILLE +   LGT RAIN  38  35  88 N9        29.91S

$$

INZ033-034-041-042-049-050-058-059-261200-
EAST CENTRAL INDIANA

CITY           SKY/WX    TMP DP  RH WIND       PRES   REMARKS
MUNCIE         RAIN      39  37  92 N9        29.89F FOG

$$

INZ060-061-067>069-081>083-085>088-261200-
SOUTHWEST INDIANA

CITY           SKY/WX    TMP DP  RH WIND       PRES   REMARKS
EVANSVILLE     LGT RAIN  48  45  89 N9        29.89R
HUNTINGBURG *+ CLOUDY    46  43  87 N6        29.87R
WASHINGTON +   DRIZZLE   44  40  87 N12       29.90R

$$

INZ062-063-066-070>080-084-089>092-261200-
SOUTH CENTRAL AND SOUTHEAST INDIANA

CITY           SKY/WX    TMP DP  RH WIND       PRES   REMARKS
BEDFORD +      RAIN      45  41  87 N7        29.86F
BLOOMINGTON    LGT RAIN  41  39  93 N12       29.88F
NORTH VERNON + RAIN      45  45 100 NW9       29.88R
SEYMOUR +      RAIN      45  43  93 N10       29.87R

$$



USA.gov is the U.S. government's official web portal to all federal, state and local government web resources and services.